Location: ?????????
(44.2517°N, 135.2292°E)
Time: 04:08:21
(UTC+00:00)

Cosmos 1300 Rocket - Pass Details

Date: 19 May 2025
Orbit: 596 x 619 km, 82.5° (Epoch: 15 June)

Event Time Altitude Azimuth Distance (km) Brightness Sun altitude
Rises 18:17:35 0° 353° (N) 2,860 7.5 -11.0°
Reaches altitude 10° 18:19:49 10° 356° (N) 1,956 6.7 -10.7°
Maximum altitude 18:24:07 71° 80° (E) 642 3.8 -10.1°
Drops below altitude 10° 18:28:26 10° 165° (SSE) 1,953 5.9 -9.5°
Sets 18:30:40 0° 168° (SSE) 2,856 6.7 -9.2°
